1304899230325,50.7851
1304899290325,50.7321
1304899350325,50.8529
1304899410325,50.7282
1304899470325,50.7489
1304899530325,50.6938
1304899590325,50.6685
1304899650325,50.5877
1304899710325,50.6980
1304899770325,50.7201
1304899830325,50.6930
1304899890325,50.7554
1304899950325,50.7997
1304900010325,50.7205
1304900070325,50.7730
1304900130325,50.7358
1304900190325,50.6954
1304900250325,50.7835
1304900310325,50.6888
1304900370325,50.7237
1304900430325,50.7475
1304900490325,50.6832
1304900550325,50.7253
1304900610325,50.6188
1304900670325,50.7101
1304900730325,50.6618
1304900790325,50.6703
1304900850325,50.6856
1304900910325,50.7007
1304900970325,50.6994
1304901030325,50.5820
1304901090325,50.5630
1304901150325,50.6022
1304901210325,50.6852
1304901270325,50.6209
1304901330325,50.6443
1304901390325,50.6353
1304901450325,50.5337
1304901510325,50.6450
1304901570325,50.6274
1304901630325,50.6570
1304901690325,50.5194
1304901750325,50.6068
1304901810325,50.5522
1304901870325,50.5968
1304901930325,50.5667
1304901990325,50.5351
1304902050325,50.5451
1304902110325,50.9796
1304902170325,50.4553
1304902230325,50.5502
1304902290325,50.5341
1304902350325,50.6512
1304902410325,50.4553
1304902470325,50.5275
1304902530325,50.5333
1304902590325,50.5430
1304902650325,50.5172
1304902710325,50.5886
1304902770325,50.4982
1304902830336,50.4945
1304902890336,50.3261
1304902950336,50.4235
1304903010336,50.3315
1304903070336,50.4397
1304903130336,50.3173
1304903190336,50.4177
1304903250336,50.4600
1304903310336,50.5859
1304903370336,50.3406
1304903430336,50.4452
1304903490336,50.4250
1304903550336,50.4704
1304903610336,50.4299
1304903670336,50.4435
1304903730336,50.4522
1304903790336,50.4275
1304903850336,50.3122
1304903910336,50.4040
1304903970336,50.4774
1304904030336,50.2677
1304904090336,50.3490
1304904150336,50.4524
1304904210336,50.1217
1304904270336,50.2143
1304904330336,50.4008
1304904390336,50.1903
1304904450336,50.4372
1304904510336,50.2803
1304904570336,50.4064
1304904630336,50.4264
1304904690336,50.3165
1304904750336,50.2500
1304904810336,50.3772
1304904870336,50.3744
1304904930336,50.4013
1304904990336,50.5069
1304905050336,50.2782
1304905110336,50.3750
1304905170336,50.3745
1304905230336,50.4931
1304905290336,50.4617
1304905350336,50.3656
1304905410336,50.3862
1304905470336,50.3239
1304905530336,50.2780
1304905590336,50.2069
1304905650336,50.4472
1304905710336,50.2898
1304905770336,50.4280
1304905830336,50.3418
1304905890336,50.3428
1304905950336,50.4358
1304906010336,50.3288
1304906070336,50.2707
1304906130336,50.2103
1304906190336,50.3927
1304906250336,50.2715
1304906310336,50.4561
1304906370336,50.3985
1304906430347,50.2734
1304906490347,50.6302
1304906550348,50.3943
1304906610348,50.3630
1304906670348,50.4538
1304906730348,50.3949
1304906790348,50.4312
1304906850348,50.3719
1304906910348,50.4281
1304906970348,50.4435
1304907030348,50.5369
1304907090348,50.2954
1304907150348,50.3856
1304907210348,50.5319
1304907270348,50.3670
1304907330348,50.4043
1304907390348,50.3973
1304907450348,50.3651
1304907510348,50.4643
1304907570348,50.4005
1304907630347,50.3163
1304907690347,50.3717
1304907750347,50.3660
1304907810347,50.2593
1304907870348,50.4067
1304907930348,50.2169
1304907990348,50.6549
1304908050348,50.1886
1304908110348,50.1682
1304908170348,50.3073
1304908230348,50.1456
1304908290348,50.1841
1304908350348,50.3102
1304908410348,50.3259
1304908470348,50.2808
1304908530348,50.4183
1304908590348,50.3086
1304908650348,50.1531
1304908710348,50.3144
1304908770348,50.1910
1304908830348,50.3280
1304908890348,50.2690
1304908950347,50.2682
1304909010347,50.1882
1304909070347,50.2345
1304909130347,50.3109
1304909190347,50.3481
1304909250348,50.0548
1304909310348,50.1466
1304909370348,50.2242
1304909430348,50.2822
1304909490348,50.2599
1304909550348,50.2441
1304909610348,50.2594
1304909670348,50.0935
1304909730348,50.2623
1304909790348,50.3314
1304909850348,50.4082
1304909910348,50.2326
1304909970348,50.1668
1304910030358,50.2208
1304910090358,50.2553
1304910150358,50.2934
1304910210358,50.0821
1304910270358,50.2486
1304910330358,50.1388
1304910390359,50.1255
1304910450359,50.2783
1304910510359,50.1221
1304910570359,50.1908
1304910630359,50.1139
1304910690358,50.1516
1304910750358,50.1603
1304910810358,50.0416
1304910870358,50.2487
1304910930358,50.2863
1304910990358,50.1163
1304911050358,49.9994
1304911110358,50.1080
1304911170358,50.1482
1304911230358,50.2970
1304911290358,50.1849
1304911350358,50.3480
1304911410358,50.2381
1304911470358,50.1738
1304911530358,50.1913
1304911590358,50.1519
1304911650358,50.3572
1304911710359,50.2227
1304911770359,50.3411
1304911830359,50.4594
1304911890359,50.2199
1304911950359,50.2104
1304912010359,50.2832
1304912070358,50.3208
1304912130358,50.3117
1304912190358,50.4389
1304912250358,50.4426
1304912310358,50.2288
1304912370358,50.2428
1304912430358,50.2683
1304912490358,50.2757
1304912550358,50.1751
1304912610358,50.3993
1304912670358,50.3040
1304912730358,50.0883
1304912790358,50.2499
1304912850358,50.1560
1304912910358,50.2365
1304912970358,50.2640
1304913030358,50.2954
1304913090359,50.2059
1304913150359,50.3099
1304913210359,50.1831
1304913270359,50.2839
1304913330359,50.2744
1304913390358,50.3224
1304913450358,50.2379
1304913510358,50.2904
1304913570358,50.3346
1304913630369,50.3706
1304913690369,50.3468
1304913750369,50.2805
1304913810369,50.4607
1304913870369,50.2089
1304913930369,50.2756
1304913990369,50.2278
1304914050369,50.2701
1304914110369,50.1456
1304914170369,50.1831
1304914230369,50.1948
1304914290369,50.1794
1304914350369,50.2220
1304914410369,50.1622
1304914470369,50.4008
1304914530369,50.2192
1304914590369,50.1754
1304914650369,50.1832
1304914710369,50.1301
1304914770369,50.2745
1304914830369,50.2684
1304914890369,50.1900
1304914950369,50.2393
1304915010369,50.2610
1304915070369,50.2759
1304915130369,50.2564
1304915190369,50.2681
1304915250369,50.2975
1304915310369,50.3936
1304915370369,50.1631
1304915430369,50.3397
1304915490369,50.3210
1304915550369,50.3014
1304915610369,50.3634
1304915670369,50.3483
1304915730369,50.2858
1304915790369,50.2210
1304915850369,50.3211
1304915910369,50.3659
1304915970369,50.3704
1304916030369,50.2460
1304916090369,50.2231
1304916150369,50.3087
1304916210369,50.2998
1304916270369,50.2250
1304916330369,50.3156
1304916390369,50.2715
1304916450369,50.1969
1304916510369,50.4486
1304916570369,50.2899
1304916630369,50.1308
1304916690369,50.3310
1304916750369,50.2295
1304916810369,50.3024
1304916870369,50.2551
1304916930369,50.1745
1304916990369,50.1790
1304917050369,50.3160
1304917110369,50.3500
1304917170369,50.2976
1304917230380,50.1724
1304917290380,50.1428
1304917350380,50.2483
1304917410380,50.1681
1304917470380,50.2385
1304917530380,50.2803
1304917590380,50.3106
1304917650380,50.2558
1304917710380,50.2501
1304917770380,50.2920
1304917830380,50.3346
1304917890380,50.3099
1304917950380,50.3198
1304918010380,50.3495
1304918070380,50.2612
1304918130380,50.2356
1304918190380,50.4373
1304918250380,50.4480
1304918310380,50.4917
1304918370380,50.4664
1304918430380,50.3743
1304918490380,50.4581
1304918550380,50.5284
1304918610380,50.4456
1304918670380,50.4015
1304918730380,50.2654
1304918790380,50.3776
1304918850380,50.3045
1304918910380,50.3941
1304918970380,50.3323
1304919030380,50.3290
1304919090380,50.3053
1304919150380,50.4304
1304919210380,50.2505
1304919270380,50.4678
1304919330380,50.3021
1304919390380,50.3221
1304919450380,50.3243
1304919510380,50.4088
1304919570380,50.3306
1304919630380,50.3799
1304919690380,50.5109
1304919750380,50.3955
1304919810380,50.1632
1304919870380,50.3200
1304919930380,50.3720
1304919990380,50.3675
1304920050380,50.3923
1304920110380,50.3911
1304920170380,50.3433
1304920230380,50.3761
1304920290380,50.4776
1304920350380,50.5403
1304920410380,50.4801
1304920470380,50.4009
1304920530380,50.5133
1304920590380,50.3978
1304920650380,50.3845
1304920710380,50.4105
1304920770380,50.2949
1304920830391,50.4982
1304920890391,50.4289
1304920950391,50.4385
1304921010391,50.2911
1304921070391,50.3692
1304921130391,50.3433
1304921190391,50.3210
1304921250391,50.3062
1304921310391,50.2417
1304921370391,50.2372
1304921430391,50.3855
1304921490391,50.4533
1304921550391,50.2979
1304921610391,50.4761
1304921670391,50.4335
1304921730391,50.2507
1304921790391,50.3452
1304921850391,50.4581
1304921910391,50.3695
1304921970391,50.2307
1304922030391,50.4974
1304922090391,50.3532
1304922150391,50.2866
1304922210391,50.4116
1304922270391,50.4133
1304922330391,50.2766
1304922390391,50.2663
1304922450391,50.2955
1304922510391,50.4261
1304922570391,50.2939
1304922630391,50.1645
1304922690391,50.1803
1304922750391,50.1457
1304922810391,50.2136
1304922870391,50.1305
1304922930391,50.1610
1304922990391,50.1306
1304923050391,50.2601
1304923110391,50.2172
1304923170391,50.1338
1304923230391,50.2317
1304923290391,50.1553
1304923350391,50.1185
1304923410391,50.1813
1304923470391,50.1127
1304923530391,50.2581
1304923590391,50.1811
1304923650391,50.3100
1304923710391,50.0831
1304923770391,50.1616
1304923830391,50.1232
1304923890391,50.0788
1304923950391,50.0844
1304924010391,50.2772
1304924070391,50.0390
1304924130391,50.2761
1304924190391,50.1329
1304924250391,50.2064
1304924310391,50.0768
1304924370391,50.2259
1304924430401,50.2529
1304924490401,50.2222
1304924550401,50.2215
1304924610401,50.1499
1304924670401,50.3230
1304924730401,50.2589
1304924790401,50.1311
1304924850401,50.1678
1304924910401,50.2487
1304924970401,50.1847
1304925030401,50.0641
1304925090401,50.1847
1304925150401,50.2993
1304925210401,50.1999
1304925270401,50.1258
1304925330401,50.2142
1304925390401,50.2034
1304925450401,50.1176
1304925510401,50.0616
1304925570401,50.3263
1304925630401,50.0905
1304925690401,49.9973
1304925750401,50.0564
1304925810401,50.0870
1304925870401,50.1075
1304925930401,50.2690
1304925990401,49.9955
1304926050401,50.1494
1304926110401,50.1602
1304926170401,50.3430
1304926230401,50.2126
1304926290401,50.1944
1304926350401,50.1961
1304926410401,50.1908
1304926470401,50.2300
1304926530401,50.2639
1304926590401,50.0666
1304926650401,50.1125
1304926710401,50.1290
1304926770401,50.2720
1304926830401,50.1373
1304926890401,50.1846
1304926950401,50.1860
1304927010401,50.0669
1304927070401,50.0787
1304927130401,50.2085
1304927190401,50.1777
1304927250401,50.0455
1304927310401,50.0524
1304927370401,50.1056
1304927430401,50.1194
1304927490401,50.0652
1304927550401,50.0962
1304927610401,50.1160
1304927670401,50.0572
1304927730401,50.0193
1304927790401,50.1259
1304927850401,50.0537
1304927910401,49.9633
1304927970401,50.0079
1304928030412,50.0438
1304928090412,50.0208
1304928150412,50.0746
1304928210412,50.1423
1304928270412,49.9718
1304928330412,50.0709
1304928390412,50.0460
1304928450412,49.9694
1304928510412,50.1740
1304928570412,50.1206
1304928630412,50.1315
1304928690412,50.0209
1304928750412,50.0530
1304928810412,50.1115
1304928870412,50.0929
1304928930412,50.0898
1304928990412,50.1889
1304929050412,50.2282
1304929110412,50.1341
1304929170412,50.1688
1304929230412,50.1767
1304929290412,50.0377
1304929350412,49.9084
1304929410412,50.0021
1304929470412,50.2578
1304929530412,50.0745
1304929590412,50.1120
1304929650412,50.2458
1304929710412,50.1478
1304929770412,50.1869
1304929830412,50.2434
1304929890412,50.1021
1304929950412,50.2403
1304930010412,50.0516
1304930070412,50.1052
1304930130412,50.2241
1304930190412,50.1245
1304930250412,50.0600
1304930310412,49.8793
1304930370412,50.0815
1304930430412,50.0329
1304930490412,50.1449
1304930550412,50.1068
1304930610412,50.1827
1304930670412,50.0329
1304930730412,50.0985
1304930790412,50.1547
1304930850412,50.1267
1304930910412,50.1836
1304930970412,50.1145
1304931030412,50.1579
1304931090412,50.1203
1304931150412,50.1959
1304931210412,50.3614
1304931270412,50.1722
1304931330412,50.1607
1304931390412,50.2838
1304931450412,50.1130
1304931510412,50.1364
1304931570412,50.1988
1304931630422,50.1180
1304931690422,50.0570
1304931750422,50.1416
1304931810422,50.1027
1304931870422,50.0092
1304931930422,50.1160
1304931990422,50.1504
1304932050422,50.2532
1304932110422,49.9507
1304932170422,50.1299
1304932230422,49.9900
1304932290422,50.2046
1304932350422,50.0658
1304932410422,50.1077
1304932470422,50.2255
1304932530422,50.0967
1304932590422,50.0482
1304932650422,50.1042
1304932710422,50.0598
1304932770422,50.0213
1304932830422,50.1297
1304932890422,50.0719
1304932950422,50.0620
1304933010422,50.0614
1304933070422,50.0696
1304933130422,50.1679
1304933190422,50.3218
1304933250422,50.1469
1304933310422,50.1629
1304933370422,50.2172
1304933430422,50.0497
1304933490422,50.1965
1304933550422,50.2005
1304933610422,50.3024
1304933670422,50.1203
1304933730422,50.3279
1304933790422,50.1225
1304933850422,50.2112
1304933910422,50.3015
1304933970422,50.2515
1304934030422,50.2203
1304934090422,50.2881
1304934150422,50.2395
1304934210422,50.2929
1304934270422,50.2837
1304934330422,50.2445
1304934390422,50.2693
1304934450422,50.2895
1304934510422,50.1339
1304934570422,50.4177
1304934630422,50.2657
1304934690422,50.3272
1304934750422,50.2697
1304934810422,50.0923
1304934870422,50.2577
1304934930422,50.1489
1304934990422,50.3386
1304935050422,50.2531
1304935110422,50.0198
1304935170422,50.2770
1304935230433,50.3176
1304935290433,50.3410
1304935350433,50.2964
1304935410433,50.2504
1304935470433,50.1910
1304935530433,50.3067
1304935590433,50.2627
1304935650433,50.2300
1304935710433,50.2805
1304935770433,50.3643
1304935830433,50.2212
1304935890433,50.2004
1304935950433,50.2390
1304936010433,50.1912
1304936070433,50.3505
1304936130433,50.2294
1304936190433,50.2654
1304936250433,50.3315
1304936310433,50.2958
1304936370433,50.3532
1304936430433,50.3857
1304936490433,50.4167
1304936550433,50.2547
1304936610433,50.3774
1304936670433,50.2631
1304936730433,50.4223
1304936790433,50.3174
1304936850433,50.4857
1304936910433,50.3736
1304936970433,50.4088
1304937030433,50.4571
1304937090433,50.2615
1304937150433,50.5088
1304937210433,50.4792
1304937270433,50.3950
1304937330433,50.4836
1304937390433,50.2840
1304937450433,50.3186
1304937510433,50.3645
1304937570433,50.2341
1304937630433,50.1845
1304937690433,50.2982
1304937750433,50.1548
1304937810433,50.3141
1304937870433,50.2924
1304937930433,50.2822
1304937990433,50.2224
1304938050433,50.1453
1304938110433,50.2300
1304938170433,50.1200
1304938230433,50.1449
1304938290433,50.2334
1304938350433,50.1680
1304938410433,50.2887
1304938470433,50.1353
1304938530433,50.2543
1304938590433,50.2881
1304938650433,50.3042
1304938710433,50.2424
1304938770433,50.1200
1304938830443,50.1516
1304938890443,50.2290
1304938950443,50.1536
1304939010443,50.1953
1304939070443,50.1516
1304939130443,50.0835
1304939190443,50.1151
1304939250443,49.9854
1304939310443,50.0193
1304939370443,50.1526
1304939430443,50.1086
1304939490443,50.0177
1304939550443,50.0495
1304939610443,50.0198
1304939670443,50.0155
1304939730443,50.0229
1304939790443,49.9107
1304939850443,50.1657
1304939910443,50.1120
1304939970443,49.8702
1304940030443,49.9743
1304940090443,50.1634
1304940150443,49.9546
1304940210443,50.1362
1304940270443,49.9237
1304940330443,50.1342
1304940390443,50.1846
1304940450443,50.0557
1304940510443,50.0600
1304940570443,49.9672
1304940630443,50.0194
1304940690443,50.0266
1304940750443,49.8912
1304940810443,49.8735
1304940870443,49.7896
1304940930443,49.9515
1304940990443,49.8108
1304941050443,50.1009
1304941110443,49.8222
1304941170443,49.9376
1304941230443,49.9454
1304941290443,50.0101
1304941350443,49.7845
1304941410443,49.8274
1304941470443,49.8535
1304941530443,49.8075
1304941590443,49.8541
1304941650443,49.7701
1304941710443,49.8668
1304941770443,49.9544
1304941830443,49.7737
1304941890443,49.6755
1304941950443,49.7791
1304942010443,49.8125
1304942070443,49.8394
1304942130443,49.7956
1304942190443,49.8015
1304942250443,49.7821
1304942310443,49.7415
1304942370443,49.6706
1304942430454,49.7150
1304942490454,49.6595
1304942550454,49.7612
1304942610454,49.7134
1304942670454,49.5466
1304942730454,49.5620
1304942790454,49.7191
1304942850454,49.6544
1304942910454,49.5975
1304942970454,49.6251
1304943030454,49.6506
1304943090454,49.6992
1304943150454,49.5140
1304943210454,49.6092
1304943270454,49.6870
1304943330454,49.7188
1304943390454,49.5939
1304943450454,49.7192
1304943510454,49.7739
1304943570454,49.6998
1304943630454,49.7281
1304943690454,49.6792
1304943750454,49.7861
1304943810454,49.8445
1304943870454,49.5416
1304943930454,49.7390
1304943990454,49.6484
1304944050454,49.8398
1304944110454,49.7602
1304944170454,49.7943
1304944230454,49.8606
1304944290454,49.7040
1304944350454,49.7587
1304944410454,49.6904
1304944470454,49.5672
1304944530454,49.6416
1304944590454,49.6397
1304944650454,49.7943
1304944710454,49.7832
1304944770454,49.7717
1304944830454,49.9393
1304944890454,49.7300
1304944950454,49.7932
1304945010454,49.7553
1304945070454,49.6104
1304945130454,49.5997
1304945190454,49.8338
1304945250454,49.7862
1304945310454,49.7978
1304945370454,49.7735
1304945430454,49.7794
1304945490454,49.6519
1304945550454,49.7413
1304945610454,49.7483
1304945670454,49.6930
1304945730454,49.7864
1304945790454,49.7445
1304945850454,49.7949
1304945910454,49.9176
1304945970454,49.7957
1304946030464,49.7033
1304946090464,49.6640
1304946150464,49.7600
1304946210464,49.7529
1304946270464,49.9154
1304946330464,49.8659
1304946390464,49.5998
1304946450464,49.7254
1304946510464,49.8724
1304946570464,49.8718
1304946630464,49.7343
1304946690464,49.6648
1304947230464,49.7792
1304947290464,49.9702
1304947350464,49.8531
1304947410464,49.9419
1304947470464,49.8772
1304947530464,49.8350
1304947590464,49.8612
1304947650464,49.8617
1304947710464,49.8794
1304947770464,49.8365
1304947830464,49.7303
1304947890464,49.8505
1304947950464,49.8925
1304948010464,49.7590
1304948070464,49.8737
1304948130464,49.9133
1304948190464,49.9237
1304948250464,49.9000
1304948310464,49.9555
1304948370464,49.8624
1304948430464,49.7985
1304948490464,49.8413
1304948550464,49.8486
1304948610464,49.9170
1304948670464,49.9769
1304948730464,49.8908
1304948790464,49.9273
1304948850464,50.0276
1304948910464,49.9143
1304948970464,49.8305
1304949030464,49.8990
1304949090464,49.6693
1304949150464,49.7741
1304949210464,49.7715
1304949270464,49.8584
1304949330464,49.7847
1304949390464,49.7503
1304949450464,49.8276
1304949510464,49.8635
1304949570464,49.7237
1304949630475,49.8720
1304949690475,49.8036
1304949750475,49.8682
1304949810475,49.7525
1304949870475,49.7807
1304949930475,49.6842
1304949990475,49.8053
1304950050475,49.7952
1304950110475,49.8266
1304950170475,49.7233
1304950230475,49.7403
1304950290475,49.7587
1304950350475,49.6602
1304950410475,49.7390
1304950470475,49.6739
1304950530475,49.6999
1304950590475,49.5849
1304950650475,49.6419
1304950710475,49.6953
1304950770475,49.7879
1304950830475,49.6317
1304950890475,49.7074
1304950950475,49.5812
1304951010475,49.5549
1304951070475,49.6218
1304951130475,49.5792
1304951190475,49.6778
1304951250475,49.5892
1304951310475,49.6130
1304951370475,49.6105
1304951430475,49.5417
1304951490475,49.6187
1304951550475,49.5897
1304951610475,49.5243
1304951670475,49.6262
1304951730475,49.4814
1304951790475,49.5418
1304951850475,49.6140
1304951910475,49.6857
1304951970475,49.6117
1304952030475,49.5571
1304952090475,49.5467
1304952150475,49.5065
1304952210475,49.6068
1304952270475,49.6437
1304952330475,49.6234
1304952390475,49.5633
1304952450475,49.6705
1304952510475,49.6391
1304952570475,49.6719
1304952630475,49.6039
1304952690475,49.6511
1304952750475,49.7589
1304952810475,49.4989
1304952870475,49.7766
1304952930475,49.7134
1304952990475,49.7096
1304953050475,49.7366
1304953110475,49.7234
1304953170475,49.7310
1304953230485,49.7401
1304953290485,49.7870
1304953350485,49.7783
1304953410485,49.8113
1304953470485,49.9291
1304953530485,49.8624
1304953590485,49.7218
1304953650485,49.7015
1304953710485,49.7326
1304953770485,49.8053
1304953830485,49.8717
1304953890485,49.8705
1304953950485,49.6466
1304954010485,49.7460
1304954070485,49.7210
1304954130485,49.7731
1304954190485,49.8103
1304954250485,49.8688
1304954310485,49.8755
1304954370485,49.8602
1304954430485,49.8685
1304954490485,49.7067
1304954550485,49.8775
1304954610485,49.9231
1304954670485,49.7955
1304954730485,49.8442
1304954790485,49.8918
1304954850485,49.8429
1304954910485,49.7219
1304954970485,50.0362
1304955030485,49.9035
1304955090485,49.9605
1304955150485,49.8431
1304955210485,49.9748
1304955270485,50.0259
1304955330485,49.7908
1304955390485,49.7608
1304955450485,49.8653
1304955510485,49.7744
1304955570485,49.8958
1304955630485,49.9202
1304955690485,49.8152
1304955750485,49.8357
1304955810485,49.8300
1304955870485,49.8646
1304955930485,49.9672
1304955990485,49.6416
1304956050485,49.8690
1304956110485,49.8988
1304956170485,49.9327
1304956230485,49.9085
1304956290485,49.7280
1304956350485,49.8880
1304956410485,49.8642
1304956470485,50.0278
1304956530485,49.9390
1304956590485,49.9546
1304956650485,49.8225
1304956710485,49.8454
1304956770485,49.9002
1304956830470,49.8703
1304956890470,50.0340
1304956950470,49.8973
1304957010470,49.8364
1304957070470,49.8544
1304957130470,49.7413
1304957190470,49.9036
1304957250470,49.9073
1304957310470,49.8110
1304957370470,49.4991
1304957430470,50.0105
1304957490470,49.8430
1304957550470,49.9460
1304957610470,49.8038
1304957670470,49.9765
1304957730470,49.9535
1304957790470,50.1272
1304957850470,49.9203
1304957910470,49.9967
1304957970470,50.0117
1304958030470,49.9198
1304958090470,50.0062
1304958150470,49.9864
1304958210470,49.9944
1304958270470,50.0285
1304958330470,50.0361
1304958390470,49.9569
1304958450470,50.0944
1304958510470,50.0639
1304958570470,50.0031
1304958630470,50.0792
1304958690470,49.9862
1304958750470,50.1979
1304958810470,50.0007
1304958870470,50.0781
1304958930470,50.0335
1304958990470,50.1985
1304959050470,49.9720
1304959110470,50.0840
1304959170470,49.9910
1304959230470,49.8667
1304959290470,49.9775
1304959350470,50.0699
1304959410470,50.0806
1304959470470,50.1013
1304959530470,50.1013
1304959590470,50.0014
1304959650470,50.1313
1304959710470,50.0123
1304959770470,50.1448
1304959830470,50.0294
1304959890470,50.0148
1304959950470,49.9673
1304960010470,50.0942
1304960070470,49.8922
1304960130470,50.1501
1304960190470,50.1586
1304960250470,49.9292
1304960310470,49.9736
1304960370470,49.9830
1304960430480,49.9680
1304960490480,50.0429
1304960550480,50.0511
1304960610480,49.9074
1304960670480,50.0086
1304960730480,49.9434
1304960790480,50.1503
1304960850480,50.0303
1304960910480,49.9698
1304960970480,50.0250
1304961030480,49.8870
1304961090480,49.9876
1304961150480,49.9124
1304961210480,49.8041
1304961270480,49.9562
1304961330480,49.9669
1304961390480,50.1046
1304961450480,50.0597
1304961510480,50.1565
1304961570480,50.1203
1304961630480,50.0589
1304961690480,50.1628
1304961750480,50.1458
1304961810480,50.1041
1304961870480,50.0968
1304961930480,50.1940
1304961990480,50.1264
1304962050480,50.0575
1304962110480,50.2884
1304962170480,49.9437
1304962230480,50.0374
1304962290480,50.2313
1304962350480,50.1932
1304962410480,50.1251
1304962470480,50.0033
1304962530480,50.2167
1304962590480,50.1637
1304962650480,50.2427
1304962710480,50.2750
1304962770480,50.1724
1304962830480,50.2804
1304962890480,50.1582
1304962950480,50.3411
1304963010480,50.2161
1304963070480,50.3353
1304963130480,50.4247
1304963190480,50.4108
1304963250480,50.3988
1304963310480,50.1824
1304963370480,50.4130
1304963430480,50.5496
1304963490480,50.3714
1304963550480,50.4038
1304963610480,50.4711
1304963670480,50.3876
1304963730480,50.5720
1304963790480,50.6565
1304963850480,50.5840
1304963910480,50.7097
1304963970480,50.6754
1304964030489,50.4375
1304964090489,50.3501
1304964150489,50.4300
1304964210489,50.4363
1304964270489,50.5172
1304964330489,50.4977
1304964390489,50.3021
1304964450489,50.2741
1304964510490,50.4560
1304964570490,50.3695
1304964630490,50.3208
1304964690489,50.2770
1304964750489,50.3186
1304964810489,50.4780
1304964870489,50.4575
1304964930489,50.2344
1304964990489,50.2944
1304965050489,50.2795